This is the latest recevied weather packets stored in our database for station/object DL1NER. If no packets are shown the sender has not sent any weather packets the latest 10 day(s).
| Time | Temp. | Humidity | Pressure | Rain* | Wind** | Luminosity | Snow |
|---|---|---|---|---|---|---|---|
| 1777602610 | 2.22° C | 64% | 1028.8 hPa | 0 mm | - | 0 W/m² | - |
| 1777602010 | 2.78° C | 62% | 1028.9 hPa | 0 mm | - | 0 W/m² | - |
| 1777601410 | 2.78° C | 63% | 1028.9 hPa | 0 mm | - | 0 W/m² | - |
| 1777600810 | 2.78° C | 63% | 1028.9 hPa | 0 mm | - | 0 W/m² | - |
| 1777600210 | 2.78° C | 62% | 1028.9 hPa | 0 mm | - | 0 W/m² | - |
| 1777599610 | 2.78° C | 62% | 1028.9 hPa | 0 mm | - | 0 W/m² | - |
| 1777599010 | 3.33° C | 61% | 1028.8 hPa | 0 mm | - | 0 W/m² | - |
| 1777598410 | 3.33° C | 62% | 1028.9 hPa | 0 mm | - | 0 W/m² | - |
| 1777597810 | 3.33° C | 61% | 1028.7 hPa | 0 mm | - | 0 W/m² | - |
| 1777597209 | 3.33° C | 60% | 1028.8 hPa | 0 mm | - | 0 W/m² | - |
| 1777596610 | 3.33° C | 61% | 1028.8 hPa | 0 mm | - | 0 W/m² | - |
| 1777596010 | 3.89° C | 58% | 1028.8 hPa | 0 mm | - | 0 W/m² | - |
| 1777595409 | 3.89° C | 56% | 1028.8 hPa | 0 mm | - | 0 W/m² | - |
| 1777594810 | 4.44° C | 56% | 1028.9 hPa | 0 mm | - | 0 W/m² | - |
| 1777594210 | 4.44° C | 56% | 1028.9 hPa | 0 mm | - | 0 W/m² | - |
| 1777593609 | 4.44° C | 55% | 1028.9 hPa | 0 mm | - | 0 W/m² | - |
| 1777593010 | 4.44° C | 56% | 1028.8 hPa | 0 mm | - | 0 W/m² | - |
| 1777592410 | 4.44° C | 55% | 1028.8 hPa | 0 mm | - | 0 W/m² | - |
| 1777591816 | 5° C | 55% | 1028.7 hPa | 0 mm | - | 0 W/m² | - |
| 1777591210 | 5.56° C | 54% | 1028.8 hPa | 0 mm | - | 0 W/m² | - |
| 1777590610 | 5.56° C | 54% | 1028.8 hPa | 0 mm | - | 0 W/m² | - |
| 1777590008 | 5.56° C | 53% | 1028.8 hPa | 0 mm | - | 0 W/m² | - |
| 1777589409 | 6.11° C | 52% | 1028.5 hPa | 0 mm | - | 0 W/m² | - |
| 1777588809 | 6.67° C | 50% | 1028.5 hPa | 0 mm | - | 0 W/m² | - |
| 1777587610 | 7.22° C | 48% | 1028.6 hPa | 0 mm | - | 0 W/m² | - |
* Rain latest hour (hover to see other rain measurements)
** Current wind speed in m/s (hover to see current wind gust speed)